This demonstration page uses our WeatherBlox Daily Observations layout. Learn more.

Left ArrowRight Arrow

53.62937, 11.41316

Hourly Observations for May 5, 2016

Temp ( °F °C ) Dew Point ( °F °C ) Humidity (%) Winds ( mph kmh ) Pressure ( in mb ) Visibility ( mi km ) Precip ( " mm )
6:20 am 06:20 Mostly Sunny 30 -1 30 -1 100 100 VRB 1 2 30.42 1030 7 11 N/A
6:50 am 06:50 Mostly Sunny 34 1 34 1 100 100 E 1 2 30.42 1030 7 11 N/A
7:20 am 07:20 Mostly Sunny 37 3 37 3 100 100 VRB 1 2 30.42 1030 7 11 N/A
7:50 am 07:50 Mostly Sunny 45 7 39 4 81 81 VRB 1 2 30.39 1029 7 11 N/A
8:20 am 08:20 Mostly Sunny 48 9 39 4 71 71 VRB 2 4 30.42 1030 7 11 N/A
8:50 am 08:50 Mostly Sunny 52 11 39 4 62 62 ENE 3 6 30.39 1029 7 11 N/A
9:20 am 09:20 Mostly Sunny 54 12 39 4 58 58 E 5 7 30.39 1029 7 11 N/A
9:50 am 09:50 Mostly Sunny 55 13 37 3 51 51 E 3 6 30.39 1029 7 11 N/A
10:20 am 10:20 Mostly Sunny 55 13 39 4 55 55 E 3 6 30.39 1029 7 11 N/A
10:50 am 10:50 Mostly Sunny 57 14 39 4 51 51 ENE 7 11 30.39 1029 7 11 N/A
11:20 am 11:20 Mostly Sunny 57 14 34 1 41 41 VRB 7 11 30.39 1029 7 11 N/A
11:50 am 11:50 Mostly Sunny 59 15 34 1 39 39 NE 6 9 30.39 1029 7 11 N/A
12:20 pm 12:20 Mostly Sunny 59 15 32 undefined 36 36 VRB 5 7 30.39 1029 7 11 N/A
12:50 pm 12:50 Mostly Sunny 59 15 32 undefined 36 36 ENE 7 11 30.36 1028 7 11 N/A
1:20 pm 13:20 Mostly Sunny 61 16 36 2 39 39 VRB 7 11 30.36 1028 7 11 N/A
1:50 pm 13:50 Mostly Sunny 61 16 30 -1 31 31 ENE 8 13 30.36 1028 7 11 N/A
2:20 pm 14:20 Mostly Sunny 63 17 30 -1 30 30 VRB 5 7 30.33 1027 7 11 N/A
2:50 pm 14:50 Mostly Sunny 63 17 32 undefined 32 32 VRB 3 6 30.33 1027 7 11 N/A
3:20 pm 15:20 Mostly Sunny 63 17 32 undefined 32 32 NE 6 9 30.33 1027 7 11 N/A
3:50 pm 15:50 Mostly Sunny 64 18 34 1 32 32 E 8 13 30.33 1027 7 11 N/A
4:20 pm 16:20 Mostly Sunny 64 18 36 2 34 34 ENE 9 15 30.30 1026 7 11 N/A
4:50 pm 16:50 Mostly Sunny 64 18 34 1 32 32 E 9 15 30.30 1026 7 11 N/A
5:20 pm 17:20 Mostly Sunny 64 18 32 undefined 30 30 ENE 12 19 30.30 1026 7 11 N/A
5:50 pm 17:50 Mostly Sunny 64 18 36 2 34 34 NE 10 17 30.27 1025 7 11 N/A
6:20 pm 18:20 Mostly Sunny 64 18 36 2 34 34 NE 9 15 30.27 1025 7 11 N/A
6:50 pm 18:50 Mostly Sunny 64 18 36 2 34 34 E 7 11 30.27 1025 7 11 N/A

Powered by AerisWeather